TimeEDT,TemperatureF,Dew PointF,Humidity,Sea Level PressureIn,VisibilityMPH,Wind Direction,Wind SpeedMPH,Gust SpeedMPH,PrecipitationIn,Events,Conditions,WindDirDegrees,DateUTC
12:15 AM,53.1,51.8,95,29.80,1.0,East,16.1,25.3,N/A,,Overcast,100,2013-05-21 04:15:00
12:34 AM,53.1,51.8,95,29.80,0.8,East,15.0,24.2,N/A,,Overcast,100,2013-05-21 04:34:00
12:54 AM,53.6,52.2,95,29.80,1.5,East,20.7,27.6,N/A,,Overcast,100,2013-05-21 04:54:00
1:15 AM,53.2,52.2,96,29.80,0.8,East,15.0,24.2,N/A,,Overcast,100,2013-05-21 05:15:00
1:34 AM,51.1,50.0,96,29.80,0.5,East,12.7,21.9,N/A,Fog,Fog,100,2013-05-21 05:34:00
1:54 AM,50.9,50.0,97,29.80,0.5,East,17.3,24.2,N/A,Fog,Fog,100,2013-05-21 05:54:00
2:15 AM,50.4,49.3,96,29.80,0.5,East,12.7,27.6,N/A,Fog,Fog,100,2013-05-21 06:15:00
2:34 AM,49.5,48.4,96,29.79,0.5,East,16.1,24.2,N/A,Fog,Fog,100,2013-05-21 06:34:00
2:54 AM,49.1,48.0,96,29.77,0.5,East,17.3,25.3,N/A,Fog,Fog,90,2013-05-21 06:54:00
3:15 AM,49.3,48.2,96,29.78,0.5,East,15.0,26.5,N/A,Rain,Light Rain,100,2013-05-21 07:15:00
3:34 AM,49.3,48.2,96,29.78,0.5,East,15.0,24.2,N/A,,Unknown,80,2013-05-21 07:34:00
3:54 AM,49.6,48.6,96,29.79,0.5,East,17.3,27.6,N/A,Fog,Fog,80,2013-05-21 07:54:00
4:15 AM,50.0,48.7,95,29.78,0.5,East,17.3,27.6,N/A,,Unknown,80,2013-05-21 08:15:00
4:34 AM,50.0,48.9,96,29.77,0.2,East,18.4,29.9,N/A,Fog,Fog,80,2013-05-21 08:34:00
4:54 AM,50.0,49.1,97,29.76,0.5,East,20.7,28.8,N/A,,Unknown,80,2013-05-21 08:54:00
5:15 AM,50.0,49.1,97,29.78,0.5,East,16.1,27.6,N/A,Fog,Fog,90,2013-05-21 09:15:00
5:34 AM,50.0,48.9,96,29.79,0.2,East,17.3,24.2,N/A,,Unknown,90,2013-05-21 09:34:00
5:54 AM,50.2,49.1,96,29.80,0.5,East,13.8,20.7,N/A,Fog,Fog,100,2013-05-21 09:54:00
6:14 AM,50.0,48.9,96,29.84,1.0,South,8.1,16.1,N/A,,Unknown,170,2013-05-21 10:14:00
6:34 AM,49.6,48.6,96,29.82,1.0,East,10.4,17.3,N/A,Rain,Light Rain,100,2013-05-21 10:34:00
6:55 AM,48.9,47.7,95,29.78,0.2,East,16.1,21.9,N/A,Rain,Rain,90,2013-05-21 10:55:00
7:14 AM,47.7,46.6,96,29.76,0.2,East,16.1,24.2,N/A,Fog,Fog,90,2013-05-21 11:14:00
7:34 AM,48.0,46.9,96,29.77,0.2,East,15.0,25.3,N/A,Fog,Fog,90,2013-05-21 11:34:00
7:55 AM,48.4,47.5,97,29.82,0.2,ESE,13.8,21.9,0.07,,Unknown,120,2013-05-21 11:55:00
8:14 AM,50.9,49.8,96,29.76,3.0,East,15.0,26.5,0.04,Rain,Light Rain,80,2013-05-21 12:14:00
8:34 AM,50.2,49.1,96,29.80,10.0,ESE,15.0,21.9,0.04,,Unknown,110,2013-05-21 12:34:00
8:55 AM,50.0,49.1,97,29.78,4.0,East,18.4,24.2,0.06,,Overcast,100,2013-05-21 12:55:00
9:14 AM,48.7,47.8,97,29.76,2.0,East,17.3,25.3,0.01,,Unknown,90,2013-05-21 13:14:00
9:35 AM,49.1,47.8,95,29.76,1.8,East,17.3,26.5,0.04,Rain,Light Rain,90,2013-05-21 13:35:00
9:54 AM,48.4,47.3,96,29.74,0.5,East,18.4,28.8,0.05,Rain,Light Rain,80,2013-05-21 13:54:00
10:14 AM,49.5,48.4,96,29.75,0.5,East,17.3,28.8,N/A,,Unknown,100,2013-05-21 14:14:00
10:35 AM,49.5,48.4,96,29.76,0.8,East,19.6,31.1,N/A,,Overcast,100,2013-05-21 14:35:00
10:54 AM,49.3,48.2,96,29.77,1.0,ESE,16.1,28.8,N/A,,Overcast,110,2013-05-21 14:54:00
11:14 AM,50.2,49.1,96,29.78,0.8,ESE,12.7,25.3,N/A,,Overcast,110,2013-05-21 15:14:00
11:35 AM,51.3,50.2,96,29.77,1.0,East,17.3,25.3,N/A,,Overcast,100,2013-05-21 15:35:00
11:54 AM,51.3,50.2,96,29.77,1.0,ESE,16.1,25.3,N/A,,Overcast,110,2013-05-21 15:54:00
12:14 PM,50.9,50.0,97,29.77,0.5,ESE,12.7,24.2,N/A,Fog,Fog,110,2013-05-21 16:14:00
12:35 PM,50.9,50.0,97,29.77,0.2,East,15.0,24.2,N/A,Fog,Fog,100,2013-05-21 16:35:00
12:54 PM,50.9,50.0,97,29.76,0.2,East,15.0,21.9,N/A,Fog,Fog,100,2013-05-21 16:54:00
1:14 PM,51.6,50.4,95,29.75,0.5,East,12.7,21.9,N/A,Fog,Fog,100,2013-05-21 17:14:00
1:35 PM,52.2,51.1,96,29.75,1.2,ESE,12.7,21.9,N/A,,Overcast,110,2013-05-21 17:35:00
1:54 PM,51.8,50.7,96,29.74,0.5,East,11.5,19.6,N/A,Fog,Fog,100,2013-05-21 17:54:00
2:14 PM,52.2,51.1,96,29.73,0.5,East,12.7,20.7,N/A,Fog,Fog,100,2013-05-21 18:14:00
2:35 PM,52.3,51.3,96,29.72,0.5,East,15.0,24.2,N/A,Fog,Fog,100,2013-05-21 18:35:00
2:54 PM,52.9,51.8,96,29.72,0.5,East,13.8,25.3,N/A,Fog,Fog,100,2013-05-21 18:54:00
3:14 PM,53.1,52.0,96,29.72,0.5,ESE,15.0,21.9,N/A,Fog,Fog,110,2013-05-21 19:14:00
3:34 PM,53.6,52.2,95,29.71,0.5,East,15.0,24.2,N/A,Fog,Fog,100,2013-05-21 19:34:00
3:54 PM,53.6,52.3,95,29.72,0.5,East,13.8,21.9,N/A,Fog,Fog,100,2013-05-21 19:54:00
4:14 PM,53.8,52.7,96,29.70,0.5,East,12.7,23.0,N/A,Fog,Fog,100,2013-05-21 20:14:00
4:34 PM,54.5,53.1,95,29.72,0.8,East,13.8,21.9,N/A,,Overcast,100,2013-05-21 20:34:00
4:54 PM,54.7,53.4,96,29.71,0.5,East,13.8,21.9,N/A,Fog,Fog,90,2013-05-21 20:54:00
5:15 PM,54.9,53.6,96,29.72,0.5,East,13.8,23.0,N/A,Fog,Fog,90,2013-05-21 21:15:00
5:34 PM,54.5,53.1,95,29.72,0.5,East,11.5,20.7,N/A,Fog,Fog,90,2013-05-21 21:34:00
5:54 PM,53.6,52.3,95,29.72,0.2,East,11.5,19.6,N/A,Fog,Fog,90,2013-05-21 21:54:00
6:15 PM,53.1,51.8,95,29.72,0.2,East,16.1,20.7,N/A,Fog,Fog,90,2013-05-21 22:15:00
6:34 PM,52.0,50.9,96,29.72,0.8,East,15.0,21.9,N/A,,Overcast,80,2013-05-21 22:34:00
6:54 PM,51.8,50.7,96,29.70,0.5,East,15.0,23.0,N/A,Fog,Fog,80,2013-05-21 22:54:00
7:15 PM,51.8,50.5,95,29.71,0.5,East,15.0,20.7,N/A,Fog,Fog,90,2013-05-21 23:15:00
7:34 PM,50.9,49.8,96,29.72,0.2,East,15.0,25.3,N/A,Fog,Fog,100,2013-05-21 23:34:00
7:55 PM,52.9,51.8,96,29.71,0.5,East,15.0,20.7,N/A,Fog,Fog,90,2013-05-21 23:55:00
8:14 PM,53.1,52.0,96,29.72,0.2,East,10.4,21.9,N/A,Fog,Fog,90,2013-05-22 00:14:00
8:34 PM,52.5,51.4,96,29.72,0.2,East,8.1,-,N/A,Fog,Fog,90,2013-05-22 00:34:00
8:54 PM,52.3,51.3,96,29.72,0.2,East,9.2,-,N/A,Fog,Fog,90,2013-05-22 00:54:00
9:14 PM,53.1,52.0,96,29.74,0.8,Calm,Calm,-,0.03,Rain,Light Rain,0,2013-05-22 01:14:00
9:34 PM,50.0,48.7,95,29.74,1.2,West,3.5,-,0.21,,Overcast,260,2013-05-22 01:34:00
9:55 PM,50.7,49.6,96,29.73,10.0,ENE,4.6,-,0.21,,Overcast,70,2013-05-22 01:55:00
10:14 PM,52.7,51.8,97,29.73,10.0,East,8.1,-,N/A,,Overcast,90,2013-05-22 02:14:00
10:34 PM,54.0,52.9,96,29.72,10.0,East,6.9,-,N/A,,Overcast,90,2013-05-22 02:34:00
10:55 PM,55.4,54.3,96,29.73,3.0,East,8.1,-,0.12,Rain,Rain,90,2013-05-22 02:55:00
11:14 PM,54.9,53.8,96,29.73,10.0,East,9.2,16.1,N/A,,Overcast,90,2013-05-22 03:14:00
11:34 PM,55.6,54.5,96,29.72,7.0,East,10.4,19.6,0.09,Rain,Light Rain,90,2013-05-22 03:34:00
11:55 PM,55.2,54.1,96,29.72,4.0,East,10.4,16.1,0.09,,Overcast,80,2013-05-22 03:55:00